Content
SEND FEEDBACK

Daily
Averages
Monthly
Summary
United Kingdom

BASSINGSTOKE, ENGLAND


Home > Europe > United Kingdom > England
Elevation: 398 feet     Latitude: 51 22N     Longitude: 001 16W

WEATHER
 
SELECT A DAY
Number of Records: 63,185;   Date Range: 8/10/96 - 10/20/14
 
SHARE

PRINT THIS DATA

[ ← Previous Day ]
WEATHER ALMANAC - JANUARY 20, 2014
[ Next Day → ]
[ °C ]   °F
Weather ElementAverageHighLow
Temperature38.3 °F45 °F (12:00 pm)32 °F (7:37 am)
Dewpoint37.1 °F42.8 °F (11:50 am)32 °F (4:50 am)
Humidity94.5 %100 % (12:50 am)82 % (3:00 pm)
Barometer29.76 in29.89 in (10:00 pm)29.59 in (12:50 am)
Wind Speed3.7 mph8.1 mph (3:50 am)
Weather ElementAverage
Visibility6.1 mi
Wind DirectionS (180.8 °)

Weather ElementTotal
Precipitation---
Heating Degree Days26.5 (Base 65)
Averaged from 51 records on January 20, 2014
WEATHER CONDITIONS BREAKOUT
WIND DIRECTION BREAKOUT
WEATHER BY HOUR - JANUARY 20, 2014
[ °C ]   °F
Local TimeTemperatureDewpointHumidityBarometerVisibilityWind DirectionWind SpeedGust SpeedPrecipitationEventsConditions
12:50 AM35.6 °F35.6 °F100 %29.59 in6.2 miSouth (170°)6.9 mphPartly Cloudy
1:00 AM36.0 °F35.0 °F94 %29.61 in16.0 miSouth (170°)6.9 mphScattered Clouds
1:50 AM37.4 °F35.6 °F93 %29.59 in6.2 miSouth (180°)5.8 mphPartly Cloudy
2:00 AM37.0 °F36.0 °F93 %29.62 in19.0 miSouth (180°)5.8 mphScattered Clouds
2:50 AM35.6 °F33.8 °F93 %29.59 in6.2 miSSE (160°)6.9 mphPartly Cloudy
3:00 AM35.0 °F34.0 °F92 %29.64 in19.0 miSSE (160°)6.9 mphScattered Clouds
3:50 AM35.6 °F33.8 °F93 %29.62 in6.2 miSSE (160°)8.1 mphPartly Cloudy
4:00 AM35.0 °F34.0 °F95 %29.65 in16.0 miSSE (160°)8.1 mphScattered Clouds
4:50 AM33.8 °F32.0 °F93 %29.62 in6.2 miSouth (170°)5.8 mphPartly Cloudy
5:00 AM33.0 °F33.0 °F98 %29.66 in12.0 miSouth (170°)5.8 mphScattered Clouds
5:50 AM33.8 °F33.8 °F100 %29.65 in6.2 miSSE (150°)4.6 mphPartly Cloudy
6:00 AM34.0 °F34.0 °F100 %29.68 in12.0 miSSE (150°)4.6 mphScattered Clouds
6:50 AM33.8 °F33.8 °F100 %29.65 inSouth (190°)4.6 mphClear
7:00 AM35.0 °F34.0 °F95 %29.70 in7.0 miSouth (190°)4.6 mphScattered Clouds
7:37 AM32.0 °F32.0 °F100 %29.68 in0.2 miSSE (160°)4.6 mphFogLight Freezing Fog
7:50 AM33.8 °F33.8 °F100 %29.68 in6.2 miSSE (150°)2.3 mphFogPatches of Fog
8:00 AM33.0 °F33.0 °F100 %29.72 in0.0 miSSE (150°)2.3 mphFogPatches of Fog
8:50 AM35.6 °F33.8 °F93 %29.71 in6.2 miSSW (200°)1.2 mphFogPatches of Fog
9:00 AM35.0 °F33.0 °F90 %29.75 in0.0 miSSW (200°)1.2 mphFogPatches of Fog
9:50 AM35.6 °F35.6 °F100 %29.74 in6.2 miSSW (200°)1.2 mphFogPatches of Fog
10:00 AM36.0 °F36.0 °F99 %29.76 in0.0 miSSW (200°)1.2 mphFogPatches of Fog
10:07 AM39.2 °F39.2 °F100 %29.74 in6.2 miSouth (180°)3.5 mphScattered Clouds
10:50 AM41.0 °F39.2 °F93 %29.74 in6.2 miNW (310°)1.2 mphScattered Clouds
11:00 AM41.0 °F40.0 °F93 %29.78 in7.0 miNW (310°)1.2 mphFogLight Fog
11:50 AM44.6 °F42.8 °F93 %29.74 in6.2 miNNE (30°)3.5 mphScattered Clouds
12:00 PM45.0 °F42.0 °F86 %29.77 in7.0 miNNE (30°)3.5 mphPartly Cloudy
12:50 PM42.8 °F39.2 °F87 %29.77 in6.2 miNNE (20°)2.3 mphScattered Clouds
1:00 PM42.0 °F40.0 °F89 %29.78 in9.0 miNNE (20°)2.3 mphPartly Cloudy
1:50 PM42.8 °F41.0 °F93 %29.77 in6.2 miNNE (30°)3.5 mphScattered Clouds
2:00 PM43.0 °F40.0 °F86 %29.78 in9.0 miNNE (30°)3.5 mphPartly Cloudy
2:50 PM44.6 °F41.0 °F87 %29.77 in6.2 miNNE (20°)2.3 mphMostly Cloudy
3:00 PM45.0 °F41.0 °F82 %29.80 in9.0 miNNE (20°)2.3 mphMostly Cloudy
3:50 PM44.6 °F41.0 °F87 %29.80 in6.2 miNNE (20°)1.2 mphMostly Cloudy
4:00 PM44.0 °F41.0 °F87 %29.82 in7.0 miNNE (20°)1.2 mphMostly Cloudy
4:50 PM42.8 °F41.0 °F93 %29.80 in6.2 miNNW (340°)3.5 mphMostly Cloudy
5:00 PM42.0 °F40.0 °F92 %29.83 in7.0 miNNW (340°)3.5 mphMostly Cloudy
5:50 PM41.0 °F39.2 °F93 %29.83 in6.2 miWSW (250°)3.5 mphMostly Cloudy
6:00 PM40.0 °F39.0 °F96 %29.85 in6.0 miWSW (250°)3.5 mphMostly Cloudy
6:50 PM41.0 °F39.2 °F93 %29.83 in6.2 miWest (270°)2.3 mphMostly Cloudy
7:00 PM41.0 °F40.0 °F94 %29.86 in6.0 miWest (270°)2.3 mphMostly Cloudy
7:50 PM41.0 °F39.2 °F93 %29.86 in6.2 miWest (260°)4.6 mphMostly Cloudy
8:00 PM41.0 °F40.0 °F92 %29.88 in6.0 miWest (260°)4.6 mphMostly Cloudy
8:50 PM39.2 °F39.2 °F100 %29.86 in3.7 miNNW (330°)3.5 mphMostly Cloudy
9:00 PM40.0 °F39.0 °F94 %29.88 in4.0 miNNW (330°)3.5 mphMist
9:29 PM35.6 °F35.6 °F100 %29.86 in0.5 miWest (270°)1.2 mphFogFog
9:38 PM33.8 °F33.8 °F100 %29.86 in0.0 miWSW (250°)2.3 mphFogFog
9:50 PM37.4 °F37.4 °F100 %29.86 in0.0 miWSW (240°)3.5 mphFogFog
10:00 PM38.0 °F37.0 °F97 %29.89 in0.0 miWSW (240°)3.5 mphFogHeavy Fog
10:50 PM37.4 °F37.4 °F100 %29.86 in0.0 miSW (230°)4.6 mphFogFog
11:00 PM37.0 °F37.0 °F99 %29.89 in0.0 miSW (230°)4.6 mphFogHeavy Fog
11:50 PM35.6 °F35.6 °F100 %29.86 in0.2 miSSW (200°)3.5 mphFogFog
Hourly data recorded from EGVO, located miles away from Bassingstoke, England







STORIES FROM OUR PARTNERS